NOAA 16 DEB, 41419

Orbit data source: Space-Track

NOAA 16 DEB, 41419 is space debris in SSO originally from a launch on Thu, 21 Sep 2000 UTC launched from the Air Force Western Test Range (AFWTR). Debris objects in space refer to the collection of defunct objects orbiting the Earth. Examples of debris include non-operational satellites, rocket bodies, and fragments generated from explosions, collisions, or faulty payload assembly.

Loading next visibility...
Identifier
41419, 2000-055KY
Orbit
SSO
Country
Flag of USUS
Related business
Manufacturer
Unknown
Mission
Spacecraft
Bus & Motor
Unknown
Mass
Unknown
Launch date (UTC)
2000-09-21 (26 years ago)
Launch vehicle
Unknown
Launch site
Air Force Western Test Range (AFWTR)
Object type
Payload
Rocket body
Debris
Shape & HBR
Unknown shape, 0.1 m
Radar Cross Section
Medium (>0.1 m² and <1 m²)

Expand to show TLE details & history
Last TLE update: 2 days ago

TLE from 2 days ago
0 NOAA 16 DEB
1 41419U 00055KY  26170.34981619  .00029529  00000-0  43516-2 0  9994
2 41419  98.8437 311.3426 0007817  60.8437 299.3551 14.75261936535170
Epoch: 2026-06-19T08:23Z
TLE epoch observation values (Epoch: 2026-06-19T08:23:44.118Z)
Latitude
-0.00002°
Longitude
-82.17128°
Altitude
644.617 km
Speed
7.537 km/s
True Right ascension
20h 45m 22s
True Declination
0° 00' 00"
Sunlit
Object was in full shadow at epoch
Visualization orbit readout
Latitude
Unknown
Longitude
Unknown
Altitude
Unknown
Speed
Unknown
Apparent Right ascension
Unknown
Apparent Declination
Unknown
Sunlit
N/A
Visualization observer readout
Local Sidereal Time
17:39:18
Azimuth
Unknown
Elevation
Unknown
Doppler factor
Unknown
Orbital elements
Apogee altitude
646.899 km
Perigee altitude
635.925 km
Semi-major axis
7,019.549 km
Eccentricity
0.00078
Inclination
98.8437°
RAAN
311.3426°
Arg. of periapsis
60.8437°
True anomaly
299.27699°
Mean anomaly
299.3551°
Eccentric anomaly
299.31605°
Mean motion
3.69045 °/min
Orbital period
97.55 mins
BSTAR
0.0043516
Loading maneuver chart data...
Computing Atmospheric mass density...
Loading historical data...
Loading historical data...
Loading historical data...
Loading historical data...
Loading historical data...
Loading historical data...
Loading historical data...

Documentation

Showing up to 5 results
|